Flag for U.S.A. Weather past 2 weeks in Kansas City, Missouri, U.S.A.

Now
49 °F

Low clouds.


Feels Like: 45 °F
Forecast: 45 / 62 °F
Wind: 9 mph from Northeast

Location: Kansas City Downtown Airport

Current Time: Apr 26, 2015 at 6:46:21 AM

Latest Report: Apr 26, 2015 at 5:54 AM


Visibility: 9 mi

Pressure: 29.87 "Hg

Humidity: 86%

Dew point: 45 °F

Location of Kansas CityLocation

Historic Weather in Kansas City — Graph

°F

Kansas City temperature yesterday

Maximum temperature yesterday: 65 °F (at 1:54 PM)
Minimum temperature yesterday: 51 °F (at 8:54 PM)
Average temperature yesterday: 58 °F

Past Weeks' High & Low Weather Summary

 TemperatureHumidityPressure
High78 °F (Apr 16, 3:54 PM)96% (Apr 19, 2:02 AM)30.25 "Hg (Apr 19, 2:02 AM)
Low39 °F (Apr 22, 6:54 AM)22% (Apr 13, 4:54 PM)29.39 "Hg (Apr 25, 5:54 AM)
Average60 °F59%29.91 "Hg
* Reported Apr 11 5:54 AM — Apr 26 5:54 AM, Kansas City, Weather by CustomWeather, © 2015

Note: Actual official high and low records may vary slightly from our data, if they occured in-between our weather recording intervals... More about our weather records

Advertising

Kansas City weather history for previous 24 hours

 ConditionsComfort  
Time TempWeatherWind HumidityBarometerVisibility
5:54 AM
Sun, Apr 26
49 °FLow clouds.9 mph86%29.87 "Hg9 mi
4:54 AM49 °FLow clouds.9 mph90%29.85 "Hg7 mi
3:54 AM50 °FFog.13 mph86%29.85 "Hg6 mi
2:54 AM50 °FFog.13 mph86%29.83 "Hg5 mi
1:54 AM50 °FFog.10 mph89%29.83 "Hg6 mi
12:54 AM51 °FLow clouds.12 mph89%29.82 "Hg8 mi
11:54 PM
Sat, Apr 25
51 °FFog.7 mph89%29.80 "Hg4 mi
10:54 PM51 °FFog.8 mph86%29.79 "Hg5 mi
9:54 PM51 °FLow clouds.10 mph86%29.78 "Hg10 mi
8:54 PM51 °FOvercast.9 mph86%29.75 "Hg10 mi
7:54 PM52 °FOvercast.12 mph83%29.73 "Hg10 mi
6:54 PM53 °FOvercast.10 mph83%29.69 "Hg10 mi
5:54 PM54 °FOvercast.13 mph83%29.67 "Hg10 mi
4:54 PM56 °FOvercast.14 mph84%29.63 "Hg10 mi
3:54 PM58 °FOvercast.13 mph84%29.59 "Hg10 mi
2:54 PM61 °FOvercast.14 mph81%29.54 "Hg10 mi
1:54 PM65 °FCloudy.15 mph85%29.50 "Hg10 mi
12:54 PM62 °FMore clouds than sun.No wind86%29.49 "Hg10 mi
12:04 PM62 °FLight rain. Cloudy.5 mph83%29.49 "Hg5 mi
11:54 AM61 °FLight rain. Mostly cloudy.3 mph87%29.47 "Hg8 mi
10:54 AM62 °FMostly cloudy.6 mph75%29.45 "Hg10 mi
9:54 AM62 °FMore clouds than sun.No wind80%29.42 "Hg10 mi
8:54 AM60 °FScattered clouds.3 mph86%29.40 "Hg10 mi
7:54 AM57 °FLight rain. More clouds than sun.5 mph93%29.41 "Hg9 mi
7:02 AM58 °FThunderstorms. Low clouds.No wind90%29.41 "Hg8 mi
6:54 AM58 °FRain. Fog.5 mph90%29.40 "Hg6 mi
Weather by CustomWeather, © 2015

See weather overviewHow to use our weather pages